ETH7YR EGCC-LSGG

Flight info

Callsign ETH7YR
Flight time N/A
Altitude 35000
Route LISTO P18 TELBA L151 MID UL612 VEULE DCT PEKIM DCT PILUL DCT PIMUP/N0474F270 DCT PIXIS DCT PIBAT/N0446F230 DCT LUSAR
Aircraft A359/H-SDE2E3GHIJ3J4J5LM1ORWXY/LB1D1

Departure

Time 2026-05-06 18:50
Airport Manchester Airport (EGCC)

Arrival

Time N/A
Airport Geneva International Airport (LSGG)
Time Latitude Longitude Altitude Speed Heading
2026-05-06 18:03 53.36759 -2.28762 261 ft 0 kts 315°
2026-05-06 18:23 53.36748 -2.28743 263 ft 4 kts 315°
2026-05-06 18:23 53.36729 -2.28711 264 ft 3 kts 315°
2026-05-06 18:23 53.36715 -2.28685 265 ft 4 kts 295°
2026-05-06 18:24 53.36713 -2.28648 265 ft 4 kts 233°
2026-05-06 18:24 53.36714 -2.28644 265 ft 4 kts 224°
2026-05-06 18:24 53.36695 -2.28675 264 ft 4 kts 224°
2026-05-06 18:24 53.36675 -2.28707 261 ft 4 kts 224°
2026-05-06 18:25 53.36657 -2.28737 261 ft 2 kts 224°
2026-05-06 18:25 53.36655 -2.28739 261 ft 0 kts 224°
2026-05-06 18:26 53.36655 -2.28740 261 ft 3 kts 224°
2026-05-06 18:26 53.36642 -2.28762 261 ft 0 kts 227°
2026-05-06 18:27 53.36637 -2.28772 261 ft 4 kts 227°
2026-05-06 18:27 53.36629 -2.28786 261 ft 0 kts 229°
2026-05-06 18:27 53.36628 -2.28789 261 ft 1 kts 230°
2026-05-06 18:29 53.36627 -2.28791 261 ft 0 kts 230°
2026-05-06 18:30 53.36759 -2.28762 261 ft 0 kts 315°
2026-05-06 18:40 53.36746 -2.28739 263 ft 4 kts 315°
2026-05-06 18:40 53.36728 -2.28708 264 ft 2 kts 315°
2026-05-06 18:40 53.36713 -2.28681 265 ft 4 kts 290°
2026-05-06 18:40 53.36714 -2.28645 265 ft 4 kts 229°
2026-05-06 18:41 53.36712 -2.28647 266 ft 4 kts 224°
2026-05-06 18:41 53.36693 -2.28678 263 ft 4 kts 224°
2026-05-06 18:41 53.36673 -2.28710 261 ft 4 kts 224°
2026-05-06 18:41 53.36656 -2.28738 261 ft 1 kts 224°
2026-05-06 18:42 53.36656 -2.28739 261 ft 0 kts 224°
2026-05-06 18:43 53.36655 -2.28739 261 ft 0 kts 224°
2026-05-06 18:44 53.36655 -2.28740 261 ft 1 kts 224°
2026-05-06 18:44 53.36647 -2.28753 261 ft 3 kts 223°
2026-05-06 18:44 53.36621 -2.28777 261 ft 4 kts 190°
2026-05-06 18:45 53.36597 -2.28766 261 ft 5 kts 154°
2026-05-06 18:45 53.36560 -2.28724 261 ft 9 kts 145°
2026-05-06 18:45 53.36513 -2.28647 261 ft 11 kts 134°
2026-05-06 18:45 53.36445 -2.28541 261 ft 15 kts 142°
2026-05-06 18:46 53.36347 -2.28464 261 ft 16 kts 149°
2026-05-06 18:46 53.36261 -2.28326 261 ft 19 kts 134°
2026-05-06 18:46 53.36159 -2.28155 261 ft 22 kts 135°
2026-05-06 18:46 53.36041 -2.27971 261 ft 24 kts 139°
2026-05-06 18:47 53.35886 -2.27853 261 ft 26 kts 182°
2026-05-06 18:47 53.35682 -2.27888 250 ft 33 kts 193°
2026-05-06 18:47 53.35493 -2.28111 241 ft 35 kts 203°
2026-05-06 18:47 53.35270 -2.28252 238 ft 34 kts 217°
2026-05-06 18:48 53.35112 -2.28566 239 ft 37 kts 233°
2026-05-06 18:48 53.34934 -2.28885 236 ft 39 kts 226°
2026-05-06 18:48 53.34743 -2.29243 226 ft 43 kts 223°
2026-05-06 18:48 53.34554 -2.29245 226 ft 16 kts 104°
2026-05-06 18:49 53.34575 -2.29164 228 ft 9 kts 53°
2026-05-06 18:49 53.34590 -2.29129 229 ft 0 kts 53°
2026-05-06 18:49 53.34607 -2.29096 225 ft 25 kts 50°
2026-05-06 18:49 53.34982 -2.28312 240 ft 145 kts 51°
2026-05-06 18:50 53.35719 -2.26803 1168 ft 182 kts 51°
2026-05-06 18:50 53.36534 -2.24872 2182 ft 229 kts 67°
2026-05-06 18:50 53.36700 -2.22026 3316 ft 262 kts 102°
2026-05-06 18:50 53.35868 -2.19317 4231 ft 262 kts 133°
2026-05-06 18:51 53.34415 -2.17551 4792 ft 260 kts 155°
2026-05-06 18:51 53.32647 -2.16849 4986 ft 264 kts 179°
2026-05-06 18:51 53.30841 -2.17058 5004 ft 264 kts 187°
2026-05-06 18:51 53.29015 -2.17440 5032 ft 264 kts 187°
2026-05-06 18:52 53.27183 -2.17797 5467 ft 268 kts 187°
2026-05-06 18:52 53.25315 -2.18134 6495 ft 272 kts 188°
2026-05-06 18:52 53.23419 -2.18453 7700 ft 275 kts 188°
2026-05-06 18:52 53.21494 -2.18770 8907 ft 280 kts 187°
2026-05-06 18:53 53.19539 -2.19084 10128 ft 285 kts 187°
2026-05-06 18:53 53.17498 -2.19416 10897 ft 307 kts 187°
2026-05-06 18:53 53.15267 -2.19772 11430 ft 334 kts 187°
2026-05-06 18:53 53.12904 -2.20142 12320 ft 346 kts 187°
2026-05-06 18:54 53.10477 -2.20522 13395 ft 353 kts 187°
2026-05-06 18:54 53.08005 -2.20908 14398 ft 360 kts 187°
2026-05-06 18:54 53.05495 -2.21300 15373 ft 364 kts 187°
2026-05-06 18:54 53.02958 -2.21696 16373 ft 369 kts 187°
2026-05-06 18:55 53.00390 -2.22096 17436 ft 373 kts 187°
2026-05-06 18:55 52.97783 -2.22502 18468 ft 379 kts 187°
2026-05-06 18:55 52.95140 -2.22913 19337 ft 385 kts 187°
2026-05-06 18:55 52.92452 -2.23330 20233 ft 390 kts 187°
2026-05-06 18:56 52.89728 -2.23751 21143 ft 396 kts 187°
2026-05-06 18:56 52.86971 -2.24239 22016 ft 400 kts 191°
2026-05-06 18:56 52.84249 -2.25073 22881 ft 405 kts 193°
2026-05-06 18:56 52.81477 -2.26049 23741 ft 410 kts 194°
2026-05-06 18:57 52.78681 -2.27103 24450 ft 415 kts 195°
2026-05-06 18:57 52.75845 -2.28204 25131 ft 421 kts 195°
2026-05-06 18:57 52.72956 -2.29235 25824 ft 427 kts 191°
2026-05-06 18:57 52.69983 -2.29701 26546 ft 434 kts 183°
2026-05-06 18:58 52.66946 -2.29384 27244 ft 441 kts 173°
2026-05-06 18:58 52.63950 -2.28176 27955 ft 447 kts 162°
2026-05-06 18:58 52.61104 -2.26056 28645 ft 453 kts 151°
2026-05-06 18:58 52.58390 -2.23348 29306 ft 458 kts 148°
2026-05-06 18:59 52.55709 -2.20436 29979 ft 463 kts 146°
2026-05-06 18:59 52.53034 -2.17437 30519 ft 468 kts 146°
2026-05-06 18:59 52.50377 -2.14445 31051 ft 471 kts 146°
2026-05-06 18:59 52.47626 -2.11371 31646 ft 474 kts 147°
2026-05-06 19:00 52.44914 -2.08378 32163 ft 477 kts 147°
2026-05-06 19:00 52.42136 -2.05345 32623 ft 482 kts 147°
2026-05-06 19:00 52.39331 -2.02296 33100 ft 486 kts 147°
2026-05-06 19:00 52.36502 -1.99228 33548 ft 489 kts 147°
2026-05-06 19:01 52.33652 -1.96147 33983 ft 493 kts 148°
2026-05-06 19:01 52.30776 -1.93053 34355 ft 496 kts 148°
2026-05-06 19:01 52.27888 -1.89953 34742 ft 498 kts 148°
2026-05-06 19:01 52.24990 -1.86842 34988 ft 498 kts 148°
2026-05-06 19:02 52.22113 -1.83753 35039 ft 491 kts 148°
2026-05-06 19:02 52.16461 -1.77708 35021 ft 488 kts 148°
2026-05-06 19:03 52.10781 -1.71652 35019 ft 488 kts 148°
2026-05-06 19:03 52.05093 -1.65592 35009 ft 495 kts 148°
2026-05-06 19:04 51.99206 -1.59336 35009 ft 512 kts 148°
2026-05-06 19:04 51.93189 -1.52992 35015 ft 517 kts 149°
2026-05-06 19:05 51.87156 -1.46649 35021 ft 514 kts 149°
2026-05-06 19:05 51.81172 -1.40358 35022 ft 512 kts 149°
2026-05-06 19:06 51.75205 -1.34112 35021 ft 510 kts 149°
2026-05-06 19:06 51.69278 -1.27928 35018 ft 510 kts 149°
2026-05-06 19:07 51.63321 -1.21739 35022 ft 510 kts 149°
2026-05-06 19:07 51.57363 -1.15567 35022 ft 510 kts 149°
2026-05-06 19:08 51.51405 -1.09410 35019 ft 509 kts 149°
2026-05-06 19:08 51.45431 -1.03257 35015 ft 509 kts 149°
2026-05-06 19:09 51.39464 -0.97133 35012 ft 509 kts 149°
2026-05-06 19:09 51.33496 -0.91021 35009 ft 509 kts 149°
2026-05-06 19:10 51.27527 -0.84929 34993 ft 509 kts 149°
2026-05-06 19:10 51.21524 -0.78823 34992 ft 512 kts 149°
2026-05-06 19:11 51.15571 -0.72785 34995 ft 509 kts 149°
2026-05-06 19:11 51.09595 -0.66744 34995 ft 509 kts 149°
2026-05-06 19:12 51.03623 -0.60709 34995 ft 509 kts 148°
2026-05-06 19:12 50.97720 -0.54441 34993 ft 509 kts 147°
2026-05-06 19:13 50.91866 -0.48122 34994 ft 509 kts 147°
2026-05-06 19:13 50.85990 -0.41839 34985 ft 509 kts 147°
2026-05-06 19:14 50.80146 -0.35646 35000 ft 509 kts 147°
2026-05-06 19:14 50.74243 -0.29422 34984 ft 509 kts 148°
2026-05-06 19:15 50.68348 -0.23220 34999 ft 509 kts 147°
2026-05-06 19:15 50.62453 -0.17036 34989 ft 509 kts 147°
2026-05-06 19:16 50.56551 -0.10871 34990 ft 509 kts 147°
2026-05-06 19:16 50.50628 -0.04701 34989 ft 509 kts 148°
2026-05-06 19:17 50.44715 0.01442 34991 ft 509 kts 147°
2026-05-06 19:17 50.38832 0.07543 34986 ft 510 kts 147°
2026-05-06 19:18 50.32914 0.13659 34992 ft 510 kts 147°
2026-05-06 19:18 50.26981 0.19761 34989 ft 510 kts 147°
2026-05-06 19:19 50.21040 0.25855 34988 ft 510 kts 147°
2026-05-06 19:19 50.15106 0.31950 34983 ft 511 kts 147°
2026-05-06 19:20 50.09168 0.38048 34986 ft 511 kts 147°
2026-05-06 19:20 50.03269 0.44086 34987 ft 511 kts 147°
2026-05-06 19:21 49.97323 0.50151 34992 ft 511 kts 147°
2026-05-06 19:21 49.91369 0.56205 34988 ft 511 kts 147°
2026-05-06 19:22 49.85519 0.62483 34989 ft 512 kts 140°
2026-05-06 19:22 49.80216 0.69835 34989 ft 512 kts 137°
2026-05-06 19:23 49.75891 0.76122 34983 ft 512 kts 136°
2026-05-06 19:23 49.70716 0.83685 34986 ft 512 kts 136°
2026-05-06 19:24 49.65525 0.91219 34990 ft 512 kts 137°
2026-05-06 19:24 49.60325 0.98716 34990 ft 511 kts 137°
2026-05-06 19:25 49.55120 1.06188 34991 ft 511 kts 137°
2026-05-06 19:25 49.49904 1.13653 34991 ft 512 kts 137°
2026-05-06 19:26 49.44715 1.21061 34988 ft 512 kts 137°
2026-05-06 19:26 49.39480 1.28510 34994 ft 512 kts 137°
2026-05-06 19:27 49.34254 1.35924 34995 ft 512 kts 137°
2026-05-06 19:27 49.29010 1.43341 34985 ft 512 kts 137°
2026-05-06 19:28 49.23764 1.50739 34980 ft 512 kts 137°
2026-05-06 19:28 49.18522 1.58109 34964 ft 512 kts 137°
2026-05-06 19:28 49.15902 1.61783 34747 ft 510 kts 137°
2026-05-06 19:29 49.13282 1.65452 34514 ft 511 kts 137°
2026-05-06 19:29 49.10655 1.69127 34277 ft 512 kts 137°
2026-05-06 19:29 49.08060 1.72750 34037 ft 512 kts 137°
2026-05-06 19:29 49.05428 1.76420 33785 ft 513 kts 137°
2026-05-06 19:30 49.02785 1.80100 33519 ft 514 kts 137°
2026-05-06 19:30 49.00151 1.83761 33339 ft 512 kts 137°
2026-05-06 19:30 48.97518 1.87416 33261 ft 511 kts 137°
2026-05-06 19:30 48.94885 1.91065 33108 ft 513 kts 137°
2026-05-06 19:31 48.92247 1.94717 32970 ft 513 kts 137°
2026-05-06 19:31 48.84320 2.05654 32966 ft 512 kts 137°
2026-05-06 19:32 48.79032 2.12923 32966 ft 513 kts 137°
2026-05-06 19:32 48.73731 2.20190 32966 ft 512 kts 138°
2026-05-06 19:33 48.68458 2.27396 32970 ft 513 kts 138°
2026-05-06 19:33 48.63164 2.34609 32966 ft 513 kts 138°
2026-05-06 19:34 48.57868 2.41803 32961 ft 513 kts 138°
2026-05-06 19:34 48.52559 2.48994 32964 ft 513 kts 138°
2026-05-06 19:35 48.47271 2.56136 32947 ft 512 kts 138°
2026-05-06 19:35 48.41972 2.63272 32948 ft 509 kts 139°
2026-05-06 19:36 48.36692 2.70363 32947 ft 508 kts 138°
2026-05-06 19:36 48.31406 2.77441 32944 ft 508 kts 139°
2026-05-06 19:37 48.26109 2.84488 32944 ft 509 kts 140°
2026-05-06 19:37 48.20586 2.91017 32539 ft 507 kts 143°
2026-05-06 19:38 48.17753 2.94182 32279 ft 507 kts 143°
2026-05-06 19:38 48.14925 2.97337 32089 ft 508 kts 143°
2026-05-06 19:38 48.12110 3.00504 31904 ft 497 kts 143°
2026-05-06 19:38 48.09294 3.03505 31727 ft 498 kts 148°
2026-05-06 19:39 48.06249 3.05989 31595 ft 499 kts 155°
2026-05-06 19:39 48.03091 3.08160 31399 ft 500 kts 156°
2026-05-06 19:39 47.99893 3.10230 31203 ft 500 kts 157°
2026-05-06 19:39 47.96685 3.12242 31013 ft 500 kts 157°
2026-05-06 19:40 47.93472 3.14232 30824 ft 502 kts 157°
2026-05-06 19:40 47.90242 3.16229 30648 ft 502 kts 157°
2026-05-06 19:40 47.87063 3.18199 30469 ft 502 kts 157°
2026-05-06 19:40 47.83842 3.20203 30289 ft 501 kts 157°
2026-05-06 19:41 47.80627 3.22207 30107 ft 500 kts 157°
2026-05-06 19:41 47.77427 3.24203 29923 ft 496 kts 157°
2026-05-06 19:41 47.74239 3.26193 29718 ft 495 kts 157°
2026-05-06 19:41 47.71081 3.28162 29546 ft 490 kts 157°
2026-05-06 19:42 47.67939 3.30118 29365 ft 488 kts 157°
2026-05-06 19:42 47.64843 3.32042 29203 ft 487 kts 157°
2026-05-06 19:42 47.61683 3.34003 29026 ft 486 kts 157°
2026-05-06 19:42 47.58604 3.35910 28835 ft 485 kts 156°
2026-05-06 19:43 47.55498 3.37832 28666 ft 483 kts 156°
2026-05-06 19:43 47.52398 3.39751 28494 ft 483 kts 157°
2026-05-06 19:43 47.49299 3.41668 28333 ft 482 kts 157°
2026-05-06 19:43 47.46210 3.43574 28146 ft 482 kts 157°
2026-05-06 19:44 47.43118 3.45476 27977 ft 481 kts 157°
2026-05-06 19:44 47.40031 3.47372 27797 ft 480 kts 157°
2026-05-06 19:44 47.36955 3.49260 27628 ft 479 kts 157°
2026-05-06 19:44 47.33881 3.51145 27471 ft 478 kts 157°
2026-05-06 19:45 47.30808 3.53028 27283 ft 479 kts 157°
2026-05-06 19:45 47.27733 3.54909 27115 ft 479 kts 157°
2026-05-06 19:45 47.24653 3.56792 26928 ft 478 kts 157°
2026-05-06 19:45 47.21584 3.58665 26764 ft 476 kts 157°
2026-05-06 19:46 47.18526 3.60529 26583 ft 476 kts 157°
2026-05-06 19:46 47.15518 3.62544 26552 ft 475 kts 152°
2026-05-06 19:46 47.12744 3.65151 26552 ft 473 kts 142°
2026-05-06 19:46 47.10342 3.68442 26551 ft 473 kts 130°
2026-05-06 19:47 47.08439 3.72380 26552 ft 472 kts 118°
2026-05-06 19:47 47.07129 3.76763 26326 ft 466 kts 107°
2026-05-06 19:47 47.06214 3.81223 25493 ft 461 kts 104°
2026-05-06 19:47 47.05339 3.85742 24585 ft 460 kts 107°
2026-05-06 19:48 47.03961 3.89954 23755 ft 458 kts 122°
2026-05-06 19:48 47.01980 3.93592 22869 ft 455 kts 131°
2026-05-06 19:48 46.99856 3.96992 21975 ft 450 kts 132°
2026-05-06 19:48 46.97739 4.00333 21131 ft 445 kts 132°
2026-05-06 19:49 46.95645 4.03635 20298 ft 440 kts 132°
2026-05-06 19:49 46.93582 4.06894 19517 ft 434 kts 132°
2026-05-06 19:49 46.91541 4.10135 18816 ft 428 kts 132°
2026-05-06 19:49 46.89541 4.13344 18467 ft 427 kts 132°
2026-05-06 19:50 46.87543 4.16566 18222 ft 427 kts 132°
2026-05-06 19:50 46.85551 4.19785 17940 ft 427 kts 132°
2026-05-06 19:50 46.83566 4.22996 17671 ft 425 kts 132°
2026-05-06 19:50 46.81584 4.26200 17399 ft 423 kts 132°
2026-05-06 19:51 46.79616 4.29383 17129 ft 422 kts 132°
2026-05-06 19:51 46.77655 4.32557 16866 ft 420 kts 132°
2026-05-06 19:51 46.75696 4.35725 16594 ft 419 kts 132°
2026-05-06 19:51 46.73748 4.38878 16344 ft 417 kts 132°
2026-05-06 19:52 46.71836 4.41974 16081 ft 416 kts 132°
2026-05-06 19:52 46.69904 4.45105 15816 ft 415 kts 132°
2026-05-06 19:52 46.67981 4.48223 15593 ft 413 kts 132°
2026-05-06 19:52 46.66064 4.51337 15336 ft 412 kts 132°
2026-05-06 19:53 46.64146 4.54449 15070 ft 411 kts 132°
2026-05-06 19:53 46.62240 4.57544 14826 ft 410 kts 132°
2026-05-06 19:53 46.60343 4.60626 14582 ft 408 kts 132°
2026-05-06 19:53 46.58447 4.63706 14334 ft 407 kts 132°
2026-05-06 19:54 46.56562 4.66766 14081 ft 406 kts 132°